"Pseudo-MPEC" for P21Crx2

Created 2022 Dec 25 14:22:25 UT using Find_Orb

Click here for an explanation of pseudo-MPECs

 
 Astrometry: 
     P21Crx2  C2019 01 10m6V?MAstrometryevwspUh(kJY^W_QkWo@p:$uZVBp2;CwktJaP8F51
     P21Crx2  C2019 01 10jAb#Yt]%NutHFhLuH\rn3;redacted;FY6J@@cda%A@SX9Y,4-T4F51
     P21Crx2  C2019 01 10vZdD\=eo2eNH5IBRg)2/$eg=xN+,\@(=*3fwR50q2-gU9.8K=k_YF51
     P21Crx2  C2019 01 10i3euI_W@C^Tc5`xyXp2?]AXl3*cPOci(:9AqYd/gMyNx,vdK4_]ZF51
     P21Crx2  C2019 01 13sACIpf5io)\6T!](=1.oq_Zvs?ZSlUP;L*\;tQD0clickAxvd%3OF51
     P21Crx2  C2019 01 13g)GL=wy6W,)3]x9gZT;exL-PR)GpbZFP=mVZj0qiSR(A366xh+IiF51
     P21Crx2  C2019 01 13e?Qe'=X8x#HI%d#HU*9h@)A.FooFhGFT(=f@oiBHaAp%Qr?tU:\UF51
     P21Crx2  C2022 12 02AcJ6/97/G@L3:B#]:%D\v#3PO,%*Ga`B$dX3Wpv$jI8*Eohereg_F52
     P21Crx2* C2022 12 02teuJhbU=IZHpublLJ3*t0bd3TIXI6qxmHDUWb$7dN3Lt3Ry6sdy8F52
     P21Crx2  C2022 12 02wSa/WQ'U-NWR]5nLXD9^?6'MkE)w3D,jPgE]oWiSl7orI92-2lxPF52
     P21Crx2  C2022 12 02s%v?+%$cTDbk9?5leL;^v/J]A[Lj`H/E'%_['m%C_?cNeN'fv66ZF52
     P21Crx2  C2022 12 02WSo]wfor0+`UgeMLT@xYy;-dC-E0^[rm-gP*Q6j-#/4)0CIju(C6F52
     P21Crx2  C2022 12 025-3wSC5hDexplanation-[+Nf6VgYjUbTxfDsHg/^NC5[@JJ1_J9F52
     P21Crx2  C2022 12 02K:s't`:dWnwhE)Q)2trmoBq3-W7G\Q@L[2jQi/EfK3f/eIu9BB.:F52
     P21Crx2 1C2022 12 23.38766308 56 06.068+25 42 20.77   ~CPEM 21.61GVNEOCPG96
     P21Crx2 1C2022 12 23.39286308 56 05.683+25 42 16.42   ~CPEM 20.50GVNEOCPG96
     P21Crx2 1C2022 12 23.39804008 56 05.280+25 42 13.03   ~CPEM 21.35GVNEOCPG96
     P21Crx2 1C2022 12 23.40323708 56 04.873+25 42 08.78   ~CPEM 21.16GVNEOCPG96
     P21Crx2 1C2022 12 24.38612308 54 50.717+25 30 14.98   ~CPEM 20.78GVNEOCPG96
     P21Crx2 1C2022 12 24.39126408 54 50.296+25 30 11.23   ~CPEM 20.95GVNEOCPG96
     P21Crx2 1C2022 12 24.39641808 54 49.885+25 30 07.31   ~CPEM 20.67GVNEOCPG96
     P21Crx2 1C2022 12 24.40158008 54 49.489+25 30 03.74   ~CPEM 20.77GVNEOCPG96

Station data:
(F51) Pan-STARRS 1, Haleakala  (N20.707234 W156.255910)  US/Hawaii.
   Observers J. Bulger, T. Lowe, A. Schultz, M. Willman. Measurers K.
   Chambers, S. Chastel, T. de Boer, L. Denneau, J. Fairlamb, H. Flewelling,
   M. Huber, C.-C. Lin, E. Magnier, Y. Ramanjooloo, R. Wainscoat, R. Weryk.
   1.8-m Ritchey-Chrétien + CCD.
(F52) Pan-STARRS 2, Haleakala  (N20.707382 W156.255910)  US/Hawaii.
   Observers J. Bulger, T. Dukes, T. Lowe, A. Schultz, M. Willman. Measurers
   K. Chambers, S. Chastel, T. de Boer, L. Denneau, J. Fairlamb, H.
   Flewelling, M. Huber, C.-C. Lin, E. Magnier, Y. Ramanjooloo, R. Wainscoat,
   R. Weryk. 1.8-m Ritchey-Chrétien + CCD.
(G96) Mt. Lemmon Survey  (N32.442751 W110.788720)  US/Arizona.  Observers T.
   A. Pruyne, B. M. Africano, E. J. Christensen, G. A. Farneth, D. C. Fuls,
   A. R. Gibbs, A. D. Grauer, H. Gröller, J. A. Johnson, R. A. Kowalski, S.
   M. Larson, G. J. Leonard, D. Rankin, R. L. Seaman, F. C. Shelly, K. W.
   Wierzchoś. 1.5-m reflector + 10K CCD.

Orbital elements:  P21Crx2
   Perihelion 2022 Aug 3.50587 +/- 0.00223 TT = 12:08:27 (JD 2459795.00587)
Epoch 2022 Dec 24.0 TT = JDT 2459937.5   Earth MOID: 0.8811      AutoNEOCP
M  33.52876060 +/- 0.00050          (J2000 ecliptic)
n   0.23529924 +/- 1.76e-7          Peri.  104.08238 +/- 0.0013
a   2.59849781 +/- 1.3e-6           Node   299.86714 +/- 0.00012
e   0.3540776 +/- 8.03e-6           Incl.   28.48855 +/- 0.00017
P   4.19                   H 18.29  G  0.15   U  2.5
q 1.67842779 +/- 2.05e-5    Q 3.51856783 +/- 2.16e-5
From 22 observations 2019 Jan. 10-2022 Dec. 24; mean residual 0".14
Residuals in arcseconds: 
190110 F51  .02-  .05-    221202 F52  .06+  .00     221223 G96  .04+  .00     
190110 F51  .01+  .04-    221202 F52  .10-  .18-    221223 G96  .03-  .49-    
190110 F51  .02+  .04+    221202 F52  .02+  .18+    221224 G96  .07+  .20+    
190110 F51  .01+  .13+    221202 F52  .05+  .12-    221224 G96  .08-  .18+    
190113 F51  .08-  .22+    221202 F52  .03+  .14+    221224 G96  .08-  .00     
190113 F51  .04-  .27-    221202 F52  .01+  .06-    221224 G96  .14+  .18+    
190113 F51  .10+  .01-    221223 G96  .14-  .26+    
221202 F52  .06-  .05+    221223 G96  .08+  .34-    

Ephemerides (geocentric):
Date (UTC) HH   RA             Dec           delta  r     elong  mag " sig PA
---- --------  ------------   ------------  ------ ------ -----  --- --------
2022 12 25 14  08 53 16.978   +25 15 39.87  1.1169 1.9982 144.0 21.0 .125  36
2022 12 25 15  08 53 13.657   +25 15 09.27  1.1168 1.9984 144.1 21.0 .125  36
2022 12 25 16  08 53 10.332   +25 14 38.66  1.1166 1.9985 144.1 21.0 .126  36
2022 12 25 17  08 53 07.003   +25 14 08.05  1.1165 1.9987 144.2 21.0 .126  36
2022 12 25 18  08 53 03.670   +25 13 37.42  1.1163 1.9988 144.2 21.0 .127  36
2022 12 25 19  08 53 00.333   +25 13 06.79  1.1162 1.9990 144.3 21.0 .127  36
2022 12 25 20  08 52 56.991   +25 12 36.15  1.1160 1.9991 144.3 21.0 .128  36
2022 12 25 21  08 52 53.646   +25 12 05.51  1.1159 1.9993 144.4 21.0 .128  37
2022 12 25 22  08 52 50.296   +25 11 34.85  1.1158 1.9995 144.4 21.0 .129  37
2022 12 25 23  08 52 46.942   +25 11 04.19  1.1156 1.9996 144.5 21.0 .129  37
2022 12 26 00  08 52 43.584   +25 10 33.52  1.1155 1.9998 144.5 21.0 .130  37
2022 12 26 01  08 52 40.222   +25 10 02.84  1.1153 1.9999 144.6 21.0 .130  37
2022 12 26 02  08 52 36.856   +25 09 32.15  1.1152 2.0001 144.7 21.0 .131  37
2022 12 26 03  08 52 33.486   +25 09 01.46  1.1150 2.0002 144.7 21.0 .131  37
2022 12 26 04  08 52 30.112   +25 08 30.76  1.1149 2.0004 144.8 21.0 .132  37
2022 12 26 05  08 52 26.734   +25 08 00.05  1.1148 2.0005 144.8 21.0 .132  37
2022 12 26 06  08 52 23.352   +25 07 29.33  1.1146 2.0007 144.9 21.0 .133  37
2022 12 26 07  08 52 19.965   +25 06 58.60  1.1145 2.0009 144.9 21.0 .133  37
2022 12 26 08  08 52 16.575   +25 06 27.87  1.1143 2.0010 145.0 21.0 .134  37
2022 12 26 09  08 52 13.181   +25 05 57.13  1.1142 2.0012 145.0 21.0 .134  37
2022 12 26 10  08 52 09.782   +25 05 26.38  1.1140 2.0013 145.1 21.0 .135  37
2022 12 26 11  08 52 06.380   +25 04 55.62  1.1139 2.0015 145.1 21.0 .135  37
2022 12 26 12  08 52 02.974   +25 04 24.85  1.1138 2.0016 145.2 21.0 .136  37
2022 12 26 13  08 51 59.563   +25 03 54.08  1.1136 2.0018 145.2 21.0 .136  37
2022 12 26 14  08 51 56.149   +25 03 23.30  1.1135 2.0019 145.3 21.0 .137  37
2022 12 26 15  08 51 52.731   +25 02 52.51  1.1134 2.0021 145.3 21.0 .137  37
2022 12 26 16  08 51 49.308   +25 02 21.71  1.1132 2.0023 145.4 21.0 .138  37
2022 12 26 17  08 51 45.882   +25 01 50.91  1.1131 2.0024 145.5 21.0 .138  37
2022 12 26 18  08 51 42.452   +25 01 20.09  1.1129 2.0026 145.5 20.9 .139  37
2022 12 26 19  08 51 39.017   +25 00 49.27  1.1128 2.0027 145.6 20.9 .139  37
2022 12 26 20  08 51 35.579   +25 00 18.44  1.1127 2.0029 145.6 20.9 .140  37
2022 12 26 21  08 51 32.137   +24 59 47.60  1.1125 2.0030 145.7 20.9 .140  37
2022 12 26 22  08 51 28.691   +24 59 16.76  1.1124 2.0032 145.7 20.9 .141  37
2022 12 26 23  08 51 25.241   +24 58 45.90  1.1123 2.0033 145.8 20.9 .141  37
2022 12 27 00  08 51 21.787   +24 58 15.04  1.1121 2.0035 145.8 20.9 .142  37
2022 12 27 01  08 51 18.329   +24 57 44.17  1.1120 2.0037 145.9 20.9 .142  37
2022 12 27 02  08 51 14.868   +24 57 13.30  1.1119 2.0038 145.9 20.9 .143  37
2022 12 27 03  08 51 11.402   +24 56 42.41  1.1117 2.0040 146.0 20.9 .143  37
2022 12 27 04  08 51 07.933   +24 56 11.52  1.1116 2.0041 146.0 20.9 .144  38
2022 12 27 05  08 51 04.459   +24 55 40.62  1.1115 2.0043 146.1 20.9 .144  38
2022 12 27 06  08 51 00.982   +24 55 09.71  1.1113 2.0044 146.1 20.9 .145  38
2022 12 27 07  08 50 57.501   +24 54 38.79  1.1112 2.0046 146.2 20.9 .145  38
2022 12 27 08  08 50 54.016   +24 54 07.86  1.1111 2.0047 146.3 20.9 .146  38
2022 12 27 09  08 50 50.527   +24 53 36.93  1.1109 2.0049 146.3 20.9 .146  38
2022 12 27 10  08 50 47.034   +24 53 05.99  1.1108 2.0051 146.4 20.9 .147  38
2022 12 27 11  08 50 43.537   +24 52 35.04  1.1107 2.0052 146.4 20.9 .147  38
2022 12 27 12  08 50 40.037   +24 52 04.08  1.1105 2.0054 146.5 20.9 .148  38
2022 12 27 13  08 50 36.533   +24 51 33.11  1.1104 2.0055 146.5 20.9 .148  38